map of MRS home
MRS - Airport
Location
City:  Marseille Provence, Provence-Alpes-Côte d'Azur, France
Near (Alt.):Marignane
ICAO:LFML
IATA:MRS

Details
Type:Airport (Aerodrome, Airfield)
Use:Public/Civil, International (customs port of entry)
Latitude:43°26'12"N (43.436667)
Longitude:5°12'54"E (5.215000)
Elevation:74 ft (23 m)
Variation:1.68°E (WMM2015 magnetic declination)
0.11° annual change
Runways:2
Longest:11483 × 148 ft (3500 × 45 m), paved

Time
Time Zone:UTC+1 (DST+2)
Local Time:

Weather
METAR:LFML 211000Z AUTO VRB02KT 8000 NSC 04/02 Q1015 NOSIG
TAF:LFML 210800Z 2109/2215 VRB05KT 7000 NSC TX10/2114Z TNM01/2206Z
BECMG 2109/2110 32005KT CAVOK
BECMG 2113/2114 32010KT

Related Locations
Nearby:
Farthest:CHT: 12352 mi / 19878 km
Waitangi [Tuuta], CIT, NZ

Find:

   beyond  
but within

Other Information
Maps:
NOTAMs:
Links:
Sources:

  
  • flag of France
  • flag of Provence-Alpes-Côte d'Azur
  • flag of Marseille Provence
  

Sectional Chart

Flight Planning
at skyvector.com

Satellite Image

Google Maps Satellite view

 

Copyright © 2004-2019 Karl L. Swartz. All rights reserved.
The Great Circle Mapper name and logo are trademarks of the Great Circle Mapper.
All other trademarks mentioned herein belong to their respective owners.
Please see credits for attibutions and further copyright information.

  Follow gcmap on Facebook Follow gcmap on Twitter Follow gcmap on Google+ GCmap on LinkedIn

hCard Microformat

Geo Microformat